Time,TemperatureF,DewpointF,PressureIn,WindDirection,WindDirectionDegrees,WindSpeedMPH,WindSpeedGustMPH,Humidity,HourlyPrecipIn,Conditions,Clouds,dailyrainin,SoftwareType,DateUTC
2013-08-30 00:02:00,61.5,50.6,29.97,NW,315,1.3,2.2,67,0.00,,,0.00,WUHU216TE923,2013-08-30 07:02:00,
2013-08-30 00:07:00,61.5,51.0,29.97,SE,135,1.0,2.2,68,0.00,,,0.00,WUHU216TE923,2013-08-30 07:07:00,
2013-08-30 00:12:00,61.5,51.0,29.97,SE,135,1.0,1.0,68,0.00,,,0.00,WUHU216TE923,2013-08-30 07:12:00,
2013-08-30 00:17:00,61.5,51.0,29.97,South,180,1.0,1.3,68,0.00,,,0.00,WUHU216TE923,2013-08-30 07:17:00,
2013-08-30 00:22:00,61.5,51.0,29.97,WSW,248,1.0,1.9,68,0.00,,,0.00,WUHU216TE923,2013-08-30 07:22:00,
2013-08-30 00:27:00,61.5,51.0,29.97,SSW,203,1.2,1.9,68,0.00,,,0.00,WUHU216TE923,2013-08-30 07:27:00,
2013-08-30 00:32:00,61.5,51.4,29.97,SSW,203,1.7,3.1,69,0.00,,,0.00,WUHU216TE923,2013-08-30 07:32:00,
2013-08-30 00:37:00,61.5,51.4,29.98,SSE,158,1.7,3.1,69,0.00,,,0.00,WUHU216TE923,2013-08-30 07:37:00,
2013-08-30 00:42:00,61.5,51.4,29.98,SW,225,1.7,1.9,69,0.00,,,0.00,WUHU216TE923,2013-08-30 07:42:00,
2013-08-30 00:47:00,61.5,51.4,29.98,SW,225,1.6,1.9,69,0.00,,,0.00,WUHU216TE923,2013-08-30 07:47:00,
2013-08-30 00:52:00,61.3,51.2,29.98,SW,225,1.3,1.6,69,0.00,,,0.00,WUHU216TE923,2013-08-30 07:52:00,
2013-08-30 00:57:00,61.3,51.2,29.98,SSW,203,1.1,1.7,69,0.00,,,0.00,WUHU216TE923,2013-08-30 07:57:00,
2013-08-30 01:02:00,61.2,51.1,29.98,SW,225,0.7,1.7,69,0.00,,,0.00,WUHU216TE923,2013-08-30 08:02:00,
2013-08-30 01:07:00,61.0,50.9,29.98,WSW,248,0.4,1.8,69,0.00,,,0.00,WUHU216TE923,2013-08-30 08:07:00,
2013-08-30 01:12:00,60.8,50.7,29.98,SE,135,0.3,1.8,69,0.00,,,0.00,WUHU216TE923,2013-08-30 08:12:00,
2013-08-30 01:17:00,60.6,50.5,29.99,South,180,0.5,1.7,69,0.00,,,0.00,WUHU216TE923,2013-08-30 08:17:00,
2013-08-30 01:22:00,60.6,50.9,29.99,SW,225,0.7,1.7,70,0.00,,,0.00,WUHU216TE923,2013-08-30 08:22:00,
2013-08-30 01:27:00,60.6,50.9,29.99,South,180,1.0,1.1,70,0.00,,,0.00,WUHU216TE923,2013-08-30 08:27:00,
2013-08-30 01:32:00,60.6,50.9,29.99,South,180,0.9,1.1,70,0.00,,,0.00,WUHU216TE923,2013-08-30 08:32:00,
2013-08-30 01:37:00,60.6,50.9,29.99,South,180,0.7,2.4,70,0.00,,,0.00,WUHU216TE923,2013-08-30 08:37:00,
2013-08-30 01:42:00,60.4,51.1,29.99,West,270,0.3,2.4,71,0.00,,,0.00,WUHU216TE923,2013-08-30 08:42:00,
2013-08-30 01:47:00,60.4,51.1,29.99,SSW,203,0.5,1.3,71,0.00,,,0.00,WUHU216TE923,2013-08-30 08:47:00,
2013-08-30 01:52:00,60.3,51.0,29.99,WSW,248,0.9,2.3,71,0.00,,,0.00,WUHU216TE923,2013-08-30 08:52:00,
2013-08-30 01:57:00,60.3,51.0,29.99,West,270,1.2,2.3,71,0.00,,,0.00,WUHU216TE923,2013-08-30 08:57:00,
2013-08-30 02:02:00,60.1,50.8,29.99,WSW,248,1.4,1.6,71,0.00,,,0.00,WUHU216TE923,2013-08-30 09:02:00,
2013-08-30 02:07:00,60.1,50.8,29.99,WSW,248,1.3,1.4,71,0.00,,,0.00,WUHU216TE923,2013-08-30 09:07:00,
2013-08-30 02:12:00,59.9,50.6,29.99,SW,225,1.0,2.1,71,0.00,,,0.00,WUHU216TE923,2013-08-30 09:12:00,
2013-08-30 02:17:00,59.9,51.0,30.00,SW,225,0.6,2.1,72,0.00,,,0.00,WUHU216TE923,2013-08-30 09:17:00,
2013-08-30 02:22:00,59.7,50.8,30.00,South,180,0.5,0.6,72,0.00,,,0.00,WUHU216TE923,2013-08-30 09:22:00,
2013-08-30 02:27:00,59.5,50.6,30.00,SW,225,0.4,1.3,72,0.00,,,0.00,WUHU216TE923,2013-08-30 09:27:00,
2013-08-30 02:32:00,59.5,51.0,30.00,SW,225,0.6,1.3,73,0.00,,,0.00,WUHU216TE923,2013-08-30 09:32:00,
2013-08-30 02:37:00,59.5,51.0,30.00,WSW,248,0.8,1.1,73,0.00,,,0.00,WUHU216TE923,2013-08-30 09:37:00,
2013-08-30 02:42:00,59.4,50.9,30.00,WSW,248,0.8,1.9,73,0.00,,,0.00,WUHU216TE923,2013-08-30 09:42:00,
2013-08-30 02:47:00,59.4,50.9,30.00,South,180,0.6,1.9,73,0.00,,,0.00,WUHU216TE923,2013-08-30 09:47:00,
2013-08-30 02:52:00,59.5,51.0,30.00,SW,225,0.2,0.6,73,0.00,,,0.00,WUHU216TE923,2013-08-30 09:52:00,
2013-08-30 02:57:00,59.4,50.9,30.00,WSW,248,0.0,0.2,73,0.00,,,0.00,WUHU216TE923,2013-08-30 09:57:00,
2013-08-30 03:02:00,59.4,50.9,30.00,South,180,0.4,2.3,73,0.00,,,0.00,WUHU216TE923,2013-08-30 10:02:00,
2013-08-30 03:07:00,59.4,50.9,30.00,WSW,248,1.0,2.3,73,0.00,,,0.00,WUHU216TE923,2013-08-30 10:07:00,
2013-08-30 03:12:00,59.4,50.9,30.00,WSW,248,1.0,2.0,73,0.00,,,0.00,WUHU216TE923,2013-08-30 10:12:00,
2013-08-30 03:17:00,59.4,50.9,30.00,WSW,248,1.0,2.0,73,0.00,,,0.00,WUHU216TE923,2013-08-30 10:17:00,
2013-08-30 03:22:00,59.0,50.8,30.00,WSW,248,0.8,2.0,74,0.00,,,0.00,WUHU216TE923,2013-08-30 10:22:00,
2013-08-30 03:27:00,59.0,50.8,30.00,WSW,248,0.8,2.2,74,0.00,,,0.00,WUHU216TE923,2013-08-30 10:27:00,
2013-08-30 03:32:00,59.0,50.8,30.00,SW,225,1.6,2.2,74,0.00,,,0.00,WUHU216TE923,2013-08-30 10:32:00,
2013-08-30 03:37:00,59.0,50.8,30.00,SW,225,1.8,2.4,74,0.00,,,0.00,WUHU216TE923,2013-08-30 10:37:00,
2013-08-30 03:42:00,58.6,50.4,30.00,SW,225,1.6,2.4,74,0.00,,,0.00,WUHU216TE923,2013-08-30 10:42:00,
2013-08-30 03:47:00,58.5,50.3,30.00,SW,225,1.3,1.8,74,0.00,,,0.00,WUHU216TE923,2013-08-30 10:47:00,
2013-08-30 03:52:00,58.3,50.2,30.00,WSW,248,1.1,1.8,74,0.00,,,0.00,WUHU216TE923,2013-08-30 10:52:00,
2013-08-30 03:57:00,58.3,50.5,30.00,WSW,248,1.0,1.4,75,0.00,,,0.00,WUHU216TE923,2013-08-30 10:57:00,
2013-08-30 04:02:00,58.1,50.3,30.00,SSW,203,0.8,1.4,75,0.00,,,0.00,WUHU216TE923,2013-08-30 11:02:00,
2013-08-30 04:07:00,58.1,50.3,30.00,SW,225,1.1,1.8,75,0.00,,,0.00,WUHU216TE923,2013-08-30 11:07:00,
2013-08-30 04:12:00,57.9,50.1,30.00,SW,225,1.5,1.9,75,0.00,,,0.00,WUHU216TE923,2013-08-30 11:12:00,
2013-08-30 04:17:00,57.9,50.1,29.99,WSW,248,1.6,2.0,75,0.00,,,0.00,WUHU216TE923,2013-08-30 11:17:00,
2013-08-30 04:22:00,57.9,50.1,29.99,SW,225,1.7,2.0,75,0.00,,,0.00,WUHU216TE923,2013-08-30 11:22:00,
2013-08-30 04:27:00,58.1,50.3,29.99,South,180,2.0,2.1,75,0.00,,,0.00,WUHU216TE923,2013-08-30 11:27:00,
2013-08-30 04:32:00,58.3,50.5,29.99,SW,225,2.4,3.0,75,0.00,,,0.00,WUHU216TE923,2013-08-30 11:32:00,
2013-08-30 04:37:00,58.5,50.7,30.00,SW,225,2.5,3.0,75,0.00,,,0.00,WUHU216TE923,2013-08-30 11:37:00,
2013-08-30 04:42:00,58.5,50.7,30.00,SSW,203,2.7,3.7,75,0.00,,,0.00,WUHU216TE923,2013-08-30 11:42:00,
2013-08-30 04:47:00,58.6,50.8,30.00,WSW,248,2.8,4.4,75,0.00,,,0.00,WUHU216TE923,2013-08-30 11:47:00,
2013-08-30 04:52:00,58.6,50.8,30.00,WSW,248,2.9,4.4,75,0.00,,,0.00,WUHU216TE923,2013-08-30 11:52:00,
2013-08-30 04:57:00,58.6,50.4,30.00,West,270,2.9,3.7,74,0.00,,,0.00,WUHU216TE923,2013-08-30 11:57:00,
2013-08-30 05:02:00,58.8,50.6,30.00,South,180,3.1,3.7,74,0.00,,,0.00,WUHU216TE923,2013-08-30 12:02:00,
2013-08-30 05:07:00,58.8,50.6,30.00,SW,225,3.1,4.4,74,0.00,,,0.00,WUHU216TE923,2013-08-30 12:07:00,
2013-08-30 05:12:00,58.8,50.6,30.00,South,180,3.0,4.4,74,0.00,,,0.00,WUHU216TE923,2013-08-30 12:12:00,
2013-08-30 05:17:00,58.8,50.6,30.00,South,180,3.2,3.8,74,0.00,,,0.00,WUHU216TE923,2013-08-30 12:17:00,
2013-08-30 05:22:00,58.8,50.3,30.00,WSW,248,3.2,4.5,73,0.00,,,0.00,WUHU216TE923,2013-08-30 12:22:00,
2013-08-30 05:27:00,58.8,50.3,30.00,WSW,248,3.4,4.5,73,0.00,,,0.00,WUHU216TE923,2013-08-30 12:27:00,
2013-08-30 05:32:00,58.8,50.6,30.00,WSW,248,4.0,4.8,74,0.00,,,0.00,WUHU216TE923,2013-08-30 12:32:00,
2013-08-30 05:37:00,58.8,50.3,30.00,WSW,248,4.0,4.8,73,0.00,,,0.00,WUHU216TE923,2013-08-30 12:37:00,
2013-08-30 05:42:00,58.6,50.1,30.00,SW,225,4.3,8.7,73,0.00,,,0.00,WUHU216TE923,2013-08-30 12:42:00,
2013-08-30 05:47:00,58.6,50.1,30.00,South,180,4.5,8.7,73,0.00,,,0.00,WUHU216TE923,2013-08-30 12:47:00,
2013-08-30 05:52:00,58.5,50.0,30.00,WSW,248,4.6,7.3,73,0.00,,,0.00,WUHU216TE923,2013-08-30 12:52:00,
2013-08-30 05:57:00,58.3,49.8,30.01,WSW,248,4.8,7.3,73,0.00,,,0.00,WUHU216TE923,2013-08-30 12:57:00,
2013-08-30 06:02:00,58.1,49.6,30.01,SW,225,4.9,6.6,73,0.00,,,0.00,WUHU216TE923,2013-08-30 13:02:00,
2013-08-30 06:07:00,57.9,49.4,30.01,SSW,203,4.9,7.4,73,0.00,,,0.00,WUHU216TE923,2013-08-30 13:07:00,
2013-08-30 06:12:00,57.9,49.4,30.01,SSW,203,4.9,7.4,73,0.00,,,0.00,WUHU216TE923,2013-08-30 13:12:00,
2013-08-30 06:17:00,57.9,49.4,30.02,SSW,203,4.9,7.4,73,0.00,,,0.00,WUHU216TE923,2013-08-30 13:17:00,
2013-08-30 06:22:00,57.4,48.9,30.02,NE,45,2.0,7.4,73,0.00,,,0.00,WUHU216TE923,2013-08-30 13:22:00,
2013-08-30 06:27:00,57.4,48.9,30.02,NNE,23,1.6,3.0,73,0.00,,,0.00,WUHU216TE923,2013-08-30 13:27:00,
2013-08-30 06:32:00,56.7,48.6,30.02,NNW,338,0.9,1.6,74,0.00,,,0.00,WUHU216TE923,2013-08-30 13:32:00,
2013-08-30 06:37:00,56.5,48.4,30.02,NNE,23,0.3,0.9,74,0.00,,,0.00,WUHU216TE923,2013-08-30 13:37:00,
2013-08-30 06:42:00,56.1,48.4,30.02,North,0,0.1,0.3,75,0.00,,,0.00,WUHU216TE923,2013-08-30 13:42:00,
2013-08-30 06:47:00,56.1,48.4,30.02,ENE,68,0.1,0.1,75,0.00,,,0.00,WUHU216TE923,2013-08-30 13:47:00,
2013-08-30 06:52:00,56.1,48.4,30.02,ESE,113,0.2,0.2,75,0.00,,,0.00,WUHU216TE923,2013-08-30 13:52:00,
2013-08-30 06:57:00,56.3,48.9,30.03,SSE,158,0.2,0.2,76,0.00,,,0.00,WUHU216TE923,2013-08-30 13:57:00,
2013-08-30 07:02:00,56.3,48.9,30.03,SE,135,0.1,1.3,76,0.00,,,0.00,WUHU216TE923,2013-08-30 14:02:00,
2013-08-30 07:07:00,56.5,49.1,30.03,South,180,0.4,2.4,76,0.00,,,0.00,WUHU216TE923,2013-08-30 14:07:00,
2013-08-30 07:12:00,56.7,49.3,30.03,SSW,203,1.0,2.4,76,0.00,,,0.00,WUHU216TE923,2013-08-30 14:12:00,
2013-08-30 07:17:00,56.8,49.4,30.03,West,270,1.4,3.0,76,0.00,,,0.00,WUHU216TE923,2013-08-30 14:17:00,
2013-08-30 07:22:00,57.2,49.4,30.03,WNW,293,1.5,3.0,75,0.00,,,0.00,WUHU216TE923,2013-08-30 14:22:00,
2013-08-30 07:27:00,57.4,49.6,30.03,WSW,248,1.3,1.8,75,0.00,,,0.00,WUHU216TE923,2013-08-30 14:27:00,
2013-08-30 07:32:00,57.6,49.8,30.03,NNE,23,1.0,1.4,75,0.00,,,0.00,WUHU216TE923,2013-08-30 14:32:00,
2013-08-30 07:38:00,57.9,49.8,30.04,NNW,338,0.9,1.2,74,0.00,,,0.00,WUHU216TE923,2013-08-30 14:38:00,
2013-08-30 07:43:00,58.1,50.0,30.04,NW,315,0.5,1.2,74,0.00,,,0.00,WUHU216TE923,2013-08-30 14:43:00,
2013-08-30 07:48:00,58.5,50.3,30.04,WSW,248,0.4,0.5,74,0.00,,,0.00,WUHU216TE923,2013-08-30 14:48:00,
2013-08-30 07:53:00,58.6,50.4,30.04,South,180,1.0,3.8,74,0.00,,,0.00,WUHU216TE923,2013-08-30 14:53:00,
2013-08-30 07:58:00,58.5,50.3,30.04,SW,225,1.5,3.8,74,0.00,,,0.00,WUHU216TE923,2013-08-30 14:58:00,
2013-08-30 08:03:00,58.5,50.3,30.04,NW,315,1.5,3.0,74,0.00,,,0.00,WUHU216TE923,2013-08-30 15:03:00,
2013-08-30 08:08:00,58.8,50.6,30.04,North,0,0.9,1.5,74,0.00,,,0.00,WUHU216TE923,2013-08-30 15:08:00,
2013-08-30 08:13:00,59.2,51.0,30.04,NNE,23,0.9,1.5,74,0.00,,,0.00,WUHU216TE923,2013-08-30 15:13:00,
2013-08-30 08:18:00,59.5,51.3,30.04,SSW,203,1.4,4.6,74,0.00,,,0.00,WUHU216TE923,2013-08-30 15:18:00,
2013-08-30 08:23:00,59.9,51.7,30.04,NNW,338,1.6,4.6,74,0.00,,,0.00,WUHU216TE923,2013-08-30 15:23:00,
2013-08-30 08:28:00,59.9,51.3,30.04,WSW,248,1.5,3.7,73,0.00,,,0.00,WUHU216TE923,2013-08-30 15:28:00,
2013-08-30 08:33:00,59.9,51.3,30.04,ENE,68,1.4,3.7,73,0.00,,,0.00,WUHU216TE923,2013-08-30 15:33:00,
2013-08-30 08:38:00,60.3,51.7,30.04,NNE,23,1.3,1.6,73,0.00,,,0.00,WUHU216TE923,2013-08-30 15:38:00,
2013-08-30 08:43:00,60.6,51.7,30.04,NW,315,1.6,2.1,72,0.00,,,0.00,WUHU216TE923,2013-08-30 15:43:00,
2013-08-30 08:48:00,61.0,51.3,30.04,WNW,293,1.5,2.8,70,0.00,,,0.00,WUHU216TE923,2013-08-30 15:48:00,
2013-08-30 08:53:00,61.2,51.5,30.04,NNW,338,0.8,2.8,70,0.00,,,0.00,WUHU216TE923,2013-08-30 15:53:00,
2013-08-30 08:58:00,61.3,51.6,30.03,SW,225,0.8,1.9,70,0.00,,,0.00,WUHU216TE923,2013-08-30 15:58:00,
2013-08-30 09:03:00,61.7,51.6,30.03,NW,315,1.3,1.3,69,0.00,,,0.00,WUHU216TE923,2013-08-30 16:03:00,
2013-08-30 09:08:00,61.9,51.8,30.03,NNW,338,1.4,1.4,69,0.00,,,0.00,WUHU216TE923,2013-08-30 16:08:00,
2013-08-30 09:13:00,62.2,51.7,30.03,North,0,1.3,2.5,68,0.00,,,0.00,WUHU216TE923,2013-08-30 16:13:00,
2013-08-30 09:18:00,62.6,52.0,30.02,WNW,293,1.2,2.5,68,0.00,,,0.00,WUHU216TE923,2013-08-30 16:18:00,
2013-08-30 09:23:00,63.1,52.1,30.02,SW,225,1.1,3.2,67,0.00,,,0.00,WUHU216TE923,2013-08-30 16:23:00,
2013-08-30 09:28:00,63.1,51.7,30.02,South,180,1.1,3.2,66,0.00,,,0.00,WUHU216TE923,2013-08-30 16:28:00,
2013-08-30 09:33:00,63.7,51.9,30.02,ESE,113,0.9,1.6,65,0.00,,,0.00,WUHU216TE923,2013-08-30 16:33:00,
2013-08-30 09:38:00,63.9,52.5,30.03,WSW,248,0.7,2.2,66,0.00,,,0.00,WUHU216TE923,2013-08-30 16:38:00,
2013-08-30 09:43:00,64.0,51.3,30.03,NW,315,2.3,3.4,63,0.00,,,0.00,WUHU216TE923,2013-08-30 16:43:00,
2013-08-30 09:48:00,64.0,51.3,30.03,SSW,203,2.7,3.4,63,0.00,,,0.00,WUHU216TE923,2013-08-30 16:48:00,
2013-08-30 09:53:00,64.4,52.1,30.03,South,180,1.5,2.7,64,0.00,,,0.00,WUHU216TE923,2013-08-30 16:53:00,
2013-08-30 09:58:00,64.6,51.9,30.02,SSE,158,0.9,1.5,63,0.00,,,0.00,WUHU216TE923,2013-08-30 16:58:00,
2013-08-30 10:03:00,64.8,52.1,30.02,SW,225,0.5,1.2,63,0.00,,,0.00,WUHU216TE923,2013-08-30 17:03:00,
2013-08-30 10:08:00,65.1,52.8,30.02,SE,135,0.5,1.2,64,0.00,,,0.00,WUHU216TE923,2013-08-30 17:08:00,
2013-08-30 10:13:00,65.5,52.3,30.02,SE,135,0.4,2.7,62,0.00,,,0.00,WUHU216TE923,2013-08-30 17:13:00,
2013-08-30 10:18:00,65.5,52.3,30.01,North,0,0.8,2.7,62,0.00,,,0.00,WUHU216TE923,2013-08-30 17:18:00,
2013-08-30 10:23:00,65.7,51.6,30.01,SSW,203,1.4,2.1,60,0.00,,,0.00,WUHU216TE923,2013-08-30 17:23:00,
2013-08-30 10:28:00,65.8,52.1,30.01,South,180,1.2,3.5,61,0.00,,,0.00,WUHU216TE923,2013-08-30 17:28:00,
2013-08-30 10:33:00,66.2,52.1,30.01,SSE,158,0.8,3.5,60,0.00,,,0.00,WUHU216TE923,2013-08-30 17:33:00,
2013-08-30 10:38:00,66.0,51.9,30.00,SW,225,0.6,3.0,60,0.00,,,0.00,WUHU216TE923,2013-08-30 17:38:00,
2013-08-30 10:43:00,66.2,52.1,30.00,WSW,248,0.8,3.0,60,0.00,,,0.00,WUHU216TE923,2013-08-30 17:43:00,
2013-08-30 10:48:00,66.6,52.4,30.00,SW,225,0.8,2.0,60,0.00,,,0.00,WUHU216TE923,2013-08-30 17:48:00,
2013-08-30 10:53:00,67.3,53.1,30.00,South,180,0.9,3.7,60,0.00,,,0.00,WUHU216TE923,2013-08-30 17:53:00,
2013-08-30 10:58:00,67.8,53.1,29.99,South,180,1.3,3.7,59,0.00,,,0.00,WUHU216TE923,2013-08-30 17:58:00,
2013-08-30 11:03:00,67.8,52.6,29.99,WNW,293,1.4,1.5,58,0.00,,,0.00,WUHU216TE923,2013-08-30 18:03:00,
2013-08-30 11:08:00,68.0,52.8,29.99,SSE,158,1.1,1.4,58,0.00,,,0.00,WUHU216TE923,2013-08-30 18:08:00,
2013-08-30 11:13:00,68.7,53.0,29.99,SSW,203,1.4,3.1,57,0.00,,,0.00,WUHU216TE923,2013-08-30 18:13:00,
2013-08-30 11:18:00,69.1,53.4,29.98,SW,225,2.0,3.1,57,0.00,,,0.00,WUHU216TE923,2013-08-30 18:18:00,
2013-08-30 11:23:00,69.8,53.5,29.98,SE,135,2.5,3.0,56,0.00,,,0.00,WUHU216TE923,2013-08-30 18:23:00,
2013-08-30 11:28:00,70.3,53.5,29.98,SSE,158,1.9,2.5,55,0.00,,,0.00,WUHU216TE923,2013-08-30 18:28:00,
2013-08-30 11:33:00,70.7,53.4,29.98,East,90,1.4,1.9,54,0.00,,,0.00,WUHU216TE923,2013-08-30 18:33:00,
2013-08-30 11:38:00,71.1,53.7,29.98,SE,135,1.6,1.9,54,0.00,,,0.00,WUHU216TE923,2013-08-30 18:38:00,
2013-08-30 11:43:00,72.0,53.5,29.98,WSW,248,2.0,7.8,52,0.00,,,0.00,WUHU216TE923,2013-08-30 18:43:00,
2013-08-30 11:48:00,71.8,51.7,29.98,SW,225,2.7,7.8,49,0.00,,,0.00,WUHU216TE923,2013-08-30 18:48:00,
2013-08-30 11:53:00,72.3,52.1,29.98,SSE,158,3.0,3.3,49,0.00,,,0.00,WUHU216TE923,2013-08-30 18:53:00,
2013-08-30 11:58:00,72.1,51.9,29.97,SSE,158,2.2,3.3,49,0.00,,,0.00,WUHU216TE923,2013-08-30 18:58:00,
2013-08-30 12:03:00,72.3,53.2,29.97,SE,135,1.3,2.3,51,0.00,,,0.00,WUHU216TE923,2013-08-30 19:03:00,
2013-08-30 12:08:00,72.9,53.8,29.97,SSW,203,1.2,2.5,51,0.00,,,0.00,WUHU216TE923,2013-08-30 19:08:00,
2013-08-30 12:14:00,72.9,53.8,29.97,SSW,203,1.2,2.5,51,0.00,,,0.00,WUHU216TE923,2013-08-30 19:14:00,
2013-08-30 12:19:00,72.9,53.8,29.96,SSW,203,1.2,2.5,51,0.00,,,0.00,WUHU216TE923,2013-08-30 19:19:00,
2013-08-30 12:24:00,71.4,51.3,29.96,SSE,158,1.1,2.5,49,0.00,,,0.00,WUHU216TE923,2013-08-30 19:24:00,
2013-08-30 12:29:00,71.4,51.3,29.96,NNE,23,1.1,2.9,49,0.00,,,0.00,WUHU216TE923,2013-08-30 19:29:00,
2013-08-30 12:34:00,72.0,51.8,29.96,NNE,23,0.9,2.9,49,0.00,,,0.00,WUHU216TE923,2013-08-30 19:34:00,
2013-08-30 12:39:00,72.0,51.3,29.96,ENE,68,1.2,3.2,48,0.00,,,0.00,WUHU216TE923,2013-08-30 19:39:00,
2013-08-30 12:44:00,72.5,51.1,29.96,NE,45,1.8,3.2,47,0.00,,,0.00,WUHU216TE923,2013-08-30 19:44:00,
2013-08-30 12:49:00,72.9,52.1,29.96,NW,315,1.6,1.9,48,0.00,,,0.00,WUHU216TE923,2013-08-30 19:49:00,
2013-08-30 12:54:00,73.0,51.6,29.96,ESE,113,1.6,1.6,47,0.00,,,0.00,WUHU216TE923,2013-08-30 19:54:00,
2013-08-30 12:59:00,73.2,51.8,29.95,NE,45,1.7,2.5,47,0.00,,,0.00,WUHU216TE923,2013-08-30 19:59:00,
2013-08-30 13:04:00,73.9,51.2,29.95,North,0,1.9,3.0,45,0.00,,,0.00,WUHU216TE923,2013-08-30 20:04:00,
2013-08-30 13:09:00,73.8,51.1,29.95,SW,225,2.3,3.6,45,0.00,,,0.00,WUHU216TE923,2013-08-30 20:09:00,
2013-08-30 13:14:00,74.1,50.1,29.95,ESE,113,2.0,3.6,43,0.00,,,0.00,WUHU216TE923,2013-08-30 20:14:00,
2013-08-30 13:19:00,74.1,48.1,29.95,WSW,248,2.1,2.4,40,0.00,,,0.00,WUHU216TE923,2013-08-30 20:19:00,
2013-08-30 13:24:00,74.5,49.2,29.95,NNW,338,2.6,2.9,41,0.00,,,0.00,WUHU216TE923,2013-08-30 20:24:00,
2013-08-30 13:29:00,74.7,48.7,29.95,SW,225,2.6,2.9,40,0.00,,,0.00,WUHU216TE923,2013-08-30 20:29:00,
2013-08-30 13:34:00,75.0,48.2,29.95,WSW,248,2.3,5.2,39,0.00,,,0.00,WUHU216TE923,2013-08-30 20:34:00,
2013-08-30 13:39:00,75.0,48.2,29.94,SW,225,2.2,5.2,39,0.00,,,0.00,WUHU216TE923,2013-08-30 20:39:00,
2013-08-30 13:44:00,75.0,48.2,29.94,SSE,158,2.2,2.3,39,0.00,,,0.00,WUHU216TE923,2013-08-30 20:44:00,
2013-08-30 13:49:00,75.2,48.4,29.94,NW,315,2.1,4.9,39,0.00,,,0.00,WUHU216TE923,2013-08-30 20:49:00,
2013-08-30 13:54:00,75.4,49.3,29.94,South,180,2.2,4.9,40,0.00,,,0.00,WUHU216TE923,2013-08-30 20:54:00,
2013-08-30 13:59:00,75.7,48.2,29.93,NW,315,2.2,4.6,38,0.00,,,0.00,WUHU216TE923,2013-08-30 20:59:00,
2013-08-30 14:04:00,75.6,47.4,29.93,South,180,1.7,4.6,37,0.00,,,0.00,WUHU216TE923,2013-08-30 21:04:00,
2013-08-30 14:09:00,75.7,45.9,29.93,NNW,338,1.8,3.8,35,0.00,,,0.00,WUHU216TE923,2013-08-30 21:09:00,
2013-08-30 14:14:00,75.9,45.4,29.93,South,180,2.4,2.4,34,0.00,,,0.00,WUHU216TE923,2013-08-30 21:14:00,
2013-08-30 14:19:00,75.6,45.1,29.93,ESE,113,1.6,2.4,34,0.00,,,0.00,WUHU216TE923,2013-08-30 21:19:00,
2013-08-30 14:24:00,75.7,45.9,29.93,NW,315,1.0,2.7,35,0.00,,,0.00,WUHU216TE923,2013-08-30 21:24:00,
2013-08-30 14:29:00,75.9,46.1,29.93,NNW,338,1.4,3.7,35,0.00,,,0.00,WUHU216TE923,2013-08-30 21:29:00,
2013-08-30 14:34:00,76.1,45.5,29.93,SE,135,1.8,3.8,34,0.00,,,0.00,WUHU216TE923,2013-08-30 21:34:00,
2013-08-30 14:39:00,76.5,46.7,29.92,WSW,248,1.9,3.8,35,0.00,,,0.00,WUHU216TE923,2013-08-30 21:39:00,
2013-08-30 14:44:00,76.8,45.4,29.92,East,90,2.1,2.1,33,0.00,,,0.00,WUHU216TE923,2013-08-30 21:44:00,
2013-08-30 14:49:00,77.0,44.7,29.92,NNW,338,2.1,2.6,32,0.00,,,0.00,WUHU216TE923,2013-08-30 21:49:00,
2013-08-30 14:54:00,77.0,44.7,29.92,ENE,68,2.2,4.2,32,0.00,,,0.00,WUHU216TE923,2013-08-30 21:54:00,
2013-08-30 14:59:00,77.4,44.2,29.91,NW,315,2.5,5.4,31,0.00,,,0.00,WUHU216TE923,2013-08-30 21:59:00,
2013-08-30 15:04:00,77.9,43.8,29.91,NNW,338,2.7,5.4,30,0.00,,,0.00,WUHU216TE923,2013-08-30 22:04:00,
2013-08-30 15:09:00,78.3,44.2,29.91,NW,315,2.7,4.0,30,0.00,,,0.00,WUHU216TE923,2013-08-30 22:09:00,
2013-08-30 15:14:00,78.3,44.2,29.91,SSW,203,2.2,4.0,30,0.00,,,0.00,WUHU216TE923,2013-08-30 22:14:00,
2013-08-30 15:19:00,78.6,44.4,29.90,NW,315,2.2,5.2,30,0.00,,,0.00,WUHU216TE923,2013-08-30 22:19:00,
2013-08-30 15:24:00,79.3,45.9,29.90,NW,315,3.0,5.2,31,0.00,,,0.00,WUHU216TE923,2013-08-30 22:24:00,
2013-08-30 15:29:00,79.3,45.9,29.90,NW,315,3.0,4.9,31,0.00,,,0.00,WUHU216TE923,2013-08-30 22:29:00,
2013-08-30 15:34:00,78.8,45.5,29.90,NNE,23,3.9,6.9,31,0.00,,,0.00,WUHU216TE923,2013-08-30 22:34:00,
2013-08-30 15:39:00,78.4,45.1,29.89,NE,45,3.6,6.9,31,0.00,,,0.00,WUHU216TE923,2013-08-30 22:39:00,
2013-08-30 15:44:00,78.8,46.3,29.89,NE,45,3.2,6.8,32,0.00,,,0.00,WUHU216TE923,2013-08-30 22:44:00,
2013-08-30 15:49:00,78.6,46.1,29.89,WSW,248,3.6,11.3,32,0.00,,,0.00,WUHU216TE923,2013-08-30 22:49:00,
2013-08-30 15:54:00,78.6,46.9,29.89,NE,45,3.6,11.3,33,0.00,,,0.00,WUHU216TE923,2013-08-30 22:54:00,
2013-08-30 15:59:00,78.8,47.1,29.89,NNE,23,3.5,3.9,33,0.00,,,0.00,WUHU216TE923,2013-08-30 22:59:00,
2013-08-30 16:04:00,79.0,47.3,29.89,ENE,68,3.3,4.4,33,0.00,,,0.00,WUHU216TE923,2013-08-30 23:04:00,
2013-08-30 16:09:00,79.0,47.3,29.89,NNW,338,3.4,6.6,33,0.00,,,0.00,WUHU216TE923,2013-08-30 23:09:00,
2013-08-30 16:14:00,78.8,47.1,29.89,NNE,23,3.2,6.6,33,0.00,,,0.00,WUHU216TE923,2013-08-30 23:14:00,
2013-08-30 16:19:00,79.0,46.5,29.89,ENE,68,2.8,3.2,32,0.00,,,0.00,WUHU216TE923,2013-08-30 23:19:00,
2013-08-30 16:24:00,78.6,46.1,29.89,SE,135,2.3,4.3,32,0.00,,,0.00,WUHU216TE923,2013-08-30 23:24:00,
2013-08-30 16:29:00,78.4,45.9,29.89,NW,315,2.3,4.3,32,0.00,,,0.00,WUHU216TE923,2013-08-30 23:29:00,
2013-08-30 16:34:00,77.9,46.3,29.89,ENE,68,2.2,3.6,33,0.00,,,0.00,WUHU216TE923,2013-08-30 23:34:00,
2013-08-30 16:39:00,77.5,46.0,29.87,NNW,338,2.3,5.7,33,0.00,,,0.00,WUHU216TE923,2013-08-30 23:39:00,
2013-08-30 16:44:00,77.2,45.7,29.87,NE,45,2.7,5.7,33,0.00,,,0.00,WUHU216TE923,2013-08-30 23:44:00,
2013-08-30 16:49:00,77.0,45.5,29.87,SE,135,2.4,4.0,33,0.00,,,0.00,WUHU216TE923,2013-08-30 23:49:00,
2013-08-30 16:54:00,76.8,45.4,29.87,SSE,158,2.1,2.4,33,0.00,,,0.00,WUHU216TE923,2013-08-30 23:54:00,
2013-08-30 16:59:00,76.8,46.1,29.88,ENE,68,2.1,2.1,34,0.00,,,0.00,WUHU216TE923,2013-08-30 23:59:00,
2013-08-30 17:04:00,76.8,46.1,29.88,NW,315,2.5,3.6,34,0.00,,,0.00,WUHU216TE923,2013-08-31 00:04:00,
2013-08-30 17:09:00,77.0,46.3,29.88,NNW,338,2.8,3.6,34,0.00,,,0.00,WUHU216TE923,2013-08-31 00:09:00,
2013-08-30 17:14:00,77.0,45.5,29.88,NE,45,2.9,5.9,33,0.00,,,0.00,WUHU216TE923,2013-08-31 00:14:00,
2013-08-30 17:19:00,76.8,46.1,29.89,East,90,2.9,5.9,34,0.00,,,0.00,WUHU216TE923,2013-08-31 00:19:00,
2013-08-30 17:24:00,76.8,46.1,29.89,ENE,68,3.1,8.7,34,0.00,,,0.00,WUHU216TE923,2013-08-31 00:24:00,
2013-08-30 17:29:00,76.8,46.1,29.89,East,90,3.0,8.7,34,0.00,,,0.00,WUHU216TE923,2013-08-31 00:29:00,
2013-08-30 17:34:00,77.0,46.3,29.89,East,90,2.7,5.0,34,0.00,,,0.00,WUHU216TE923,2013-08-31 00:34:00,
2013-08-30 17:39:00,77.2,46.5,29.88,NNE,23,2.3,5.0,34,0.00,,,0.00,WUHU216TE923,2013-08-31 00:39:00,
2013-08-30 17:44:00,77.0,46.3,29.88,ESE,113,2.7,6.0,34,0.00,,,0.00,WUHU216TE923,2013-08-31 00:44:00,
2013-08-30 17:49:00,76.6,46.0,29.88,NE,45,2.7,6.0,34,0.00,,,0.00,WUHU216TE923,2013-08-31 00:49:00,
2013-08-30 17:54:00,76.1,46.3,29.88,NE,45,2.8,5.3,35,0.00,,,0.00,WUHU216TE923,2013-08-31 00:54:00,
2013-08-30 17:59:00,75.9,46.1,29.89,WSW,248,2.6,4.3,35,0.00,,,0.00,WUHU216TE923,2013-08-31 00:59:00,
2013-08-30 18:04:00,75.4,45.7,29.89,NNE,23,2.2,3.9,35,0.00,,,0.00,WUHU216TE923,2013-08-31 01:04:00,
2013-08-30 18:09:00,75.0,46.1,29.89,ENE,68,2.5,3.9,36,0.00,,,0.00,WUHU216TE923,2013-08-31 01:09:00,
2013-08-30 18:14:00,74.7,46.6,29.89,ENE,68,2.6,3.3,37,0.00,,,0.00,WUHU216TE923,2013-08-31 01:14:00,
2013-08-30 18:19:00,74.5,46.4,29.89,NNW,338,2.6,3.3,37,0.00,,,0.00,WUHU216TE923,2013-08-31 01:19:00,
2013-08-30 18:24:00,74.3,46.2,29.89,NE,45,2.7,5.3,37,0.00,,,0.00,WUHU216TE923,2013-08-31 01:24:00,
2013-08-30 18:29:00,74.3,46.2,29.89,NNE,23,2.5,5.3,37,0.00,,,0.00,WUHU216TE923,2013-08-31 01:29:00,
2013-08-30 18:34:00,73.9,45.8,29.89,NE,45,2.6,4.4,37,0.00,,,0.00,WUHU216TE923,2013-08-31 01:34:00,
2013-08-30 18:39:00,73.9,45.8,29.89,NNW,338,2.4,4.4,37,0.00,,,0.00,WUHU216TE923,2013-08-31 01:39:00,
2013-08-30 18:44:00,73.6,46.3,29.89,ENE,68,2.6,3.3,38,0.00,,,0.00,WUHU216TE923,2013-08-31 01:44:00,
2013-08-30 18:49:00,73.6,46.3,29.89,NE,45,2.8,6.4,38,0.00,,,0.00,WUHU216TE923,2013-08-31 01:49:00,
2013-08-30 18:54:00,73.4,46.1,29.89,NE,45,2.9,6.4,38,0.00,,,0.00,WUHU216TE923,2013-08-31 01:54:00,
2013-08-30 18:59:00,73.2,46.6,29.89,ESE,113,3.1,5.0,39,0.00,,,0.00,WUHU216TE923,2013-08-31 01:59:00,
2013-08-30 19:04:00,72.9,46.4,29.89,NNE,23,3.2,3.4,39,0.00,,,0.00,WUHU216TE923,2013-08-31 02:04:00,
2013-08-30 19:09:00,72.7,46.2,29.89,NW,315,2.8,3.4,39,0.00,,,0.00,WUHU216TE923,2013-08-31 02:09:00,
2013-08-30 19:14:00,72.3,45.8,29.89,NNW,338,2.8,3.1,39,0.00,,,0.00,WUHU216TE923,2013-08-31 02:14:00,
2013-08-30 19:19:00,72.1,45.6,29.88,East,90,3.2,3.9,39,0.00,,,0.00,WUHU216TE923,2013-08-31 02:19:00,
2013-08-30 19:24:00,72.0,46.9,29.88,NNE,23,3.0,3.9,41,0.00,,,0.00,WUHU216TE923,2013-08-31 02:24:00,
2013-08-30 19:29:00,71.8,46.7,29.88,WNW,293,2.9,3.0,41,0.00,,,0.00,WUHU216TE923,2013-08-31 02:29:00,
2013-08-30 19:34:00,71.6,46.6,29.88,NNE,23,2.7,2.9,41,0.00,,,0.00,WUHU216TE923,2013-08-31 02:34:00,
2013-08-30 19:39:00,71.2,46.2,29.90,NNE,23,2.5,2.7,41,0.00,,,0.00,WUHU216TE923,2013-08-31 02:39:00,
2013-08-30 19:44:00,71.1,46.8,29.90,NNE,23,2.6,2.6,42,0.00,,,0.00,WUHU216TE923,2013-08-31 02:44:00,
2013-08-30 19:49:00,70.9,47.2,29.90,West,270,3.1,3.1,43,0.00,,,0.00,WUHU216TE923,2013-08-31 02:49:00,
2013-08-30 19:54:00,70.5,49.3,29.90,NE,45,3.3,3.3,47,0.00,,,0.00,WUHU216TE923,2013-08-31 02:54:00,
2013-08-30 19:59:00,70.3,49.7,29.90,NNW,338,3.1,3.3,48,0.00,,,0.00,WUHU216TE923,2013-08-31 02:59:00,
2013-08-30 20:04:00,70.2,50.2,29.90,NNE,23,2.9,3.1,49,0.00,,,0.00,WUHU216TE923,2013-08-31 03:04:00,
2013-08-30 20:09:00,70.0,50.6,29.90,NNW,338,3.2,3.6,50,0.00,,,0.00,WUHU216TE923,2013-08-31 03:09:00,
2013-08-30 20:14:00,69.6,50.7,29.90,NNE,23,3.0,3.6,51,0.00,,,0.00,WUHU216TE923,2013-08-31 03:14:00,
2013-08-30 20:19:00,69.4,51.1,29.92,NNW,338,2.8,3.4,52,0.00,,,0.00,WUHU216TE923,2013-08-31 03:19:00,
2013-08-30 20:24:00,69.3,51.5,29.92,North,0,2.9,3.4,53,0.00,,,0.00,WUHU216TE923,2013-08-31 03:24:00,
2013-08-30 20:29:00,69.3,52.1,29.92,NW,315,3.3,3.3,54,0.00,,,0.00,WUHU216TE923,2013-08-31 03:29:00,
2013-08-30 20:34:00,68.9,51.7,29.92,NNE,23,3.3,3.3,54,0.00,,,0.00,WUHU216TE923,2013-08-31 03:34:00,
2013-08-30 20:39:00,68.9,52.2,29.92,NNE,23,2.9,3.4,55,0.00,,,0.00,WUHU216TE923,2013-08-31 03:39:00,
2013-08-30 20:44:00,68.5,52.3,29.92,NNE,23,2.7,3.8,56,0.00,,,0.00,WUHU216TE923,2013-08-31 03:44:00,
2013-08-30 20:49:00,68.4,52.2,29.92,North,0,2.7,3.8,56,0.00,,,0.00,WUHU216TE923,2013-08-31 03:49:00,
2013-08-30 20:54:00,68.2,52.5,29.92,NE,45,2.8,6.7,57,0.00,,,0.00,WUHU216TE923,2013-08-31 03:54:00,
2013-08-30 20:59:00,68.0,52.3,29.93,NNE,23,2.8,6.7,57,0.00,,,0.00,WUHU216TE923,2013-08-31 03:59:00,
2013-08-30 21:04:00,67.6,51.0,29.93,North,0,3.0,5.0,55,0.00,,,0.00,WUHU216TE923,2013-08-31 04:04:00,
2013-08-30 21:09:00,67.5,50.4,29.93,West,270,2.8,5.0,54,0.00,,,0.00,WUHU216TE923,2013-08-31 04:09:00,
2013-08-30 21:14:00,67.3,50.2,29.93,NNW,338,3.1,5.6,54,0.00,,,0.00,WUHU216TE923,2013-08-31 04:14:00,
2013-08-30 21:19:00,67.1,49.5,29.93,North,0,2.7,5.6,53,0.00,,,0.00,WUHU216TE923,2013-08-31 04:19:00,
2013-08-30 21:24:00,66.9,49.3,29.93,NW,315,2.8,4.4,53,0.00,,,0.00,WUHU216TE923,2013-08-31 04:24:00,
2013-08-30 21:29:00,66.6,49.0,29.93,NNE,23,2.9,4.4,53,0.00,,,0.00,WUHU216TE923,2013-08-31 04:29:00,
2013-08-30 21:34:00,66.4,48.8,29.93,NNE,23,3.2,3.6,53,0.00,,,0.00,WUHU216TE923,2013-08-31 04:34:00,
2013-08-30 21:39:00,66.2,49.2,29.94,NNW,338,3.2,3.6,54,0.00,,,0.00,WUHU216TE923,2013-08-31 04:39:00,
2013-08-30 21:44:00,66.0,49.0,29.94,NE,45,2.9,4.8,54,0.00,,,0.00,WUHU216TE923,2013-08-31 04:44:00,
2013-08-30 21:49:00,65.8,48.8,29.94,NNE,23,2.8,4.8,54,0.00,,,0.00,WUHU216TE923,2013-08-31 04:49:00,
2013-08-30 21:54:00,65.7,48.7,29.94,NE,45,2.3,2.8,54,0.00,,,0.00,WUHU216TE923,2013-08-31 04:54:00,
2013-08-30 21:59:00,65.7,48.7,29.94,NE,45,2.0,2.4,54,0.00,,,0.00,WUHU216TE923,2013-08-31 04:59:00,
2013-08-30 22:04:00,65.3,48.3,29.94,NNE,23,1.1,2.4,54,0.00,,,0.00,WUHU216TE923,2013-08-31 05:04:00,
2013-08-30 22:09:00,65.1,48.6,29.94,NNE,23,0.8,1.5,55,0.00,,,0.00,WUHU216TE923,2013-08-31 05:09:00,
2013-08-30 22:14:00,64.9,48.4,29.94,North,0,1.4,2.8,55,0.00,,,0.00,WUHU216TE923,2013-08-31 05:14:00,
2013-08-30 22:19:00,64.8,48.8,29.95,NNE,23,2.0,2.8,56,0.00,,,0.00,WUHU216TE923,2013-08-31 05:19:00,
2013-08-30 22:24:00,64.4,48.5,29.95,NW,315,2.3,2.8,56,0.00,,,0.00,WUHU216TE923,2013-08-31 05:24:00,
2013-08-30 22:29:00,64.2,48.8,29.95,NNE,23,2.2,3.4,57,0.00,,,0.00,WUHU216TE923,2013-08-31 05:29:00,
2013-08-30 22:34:00,64.0,49.1,29.95,NNW,338,2.4,5.9,58,0.00,,,0.00,WUHU216TE923,2013-08-31 05:34:00,
2013-08-30 22:39:00,63.9,49.4,29.94,NNE,23,2.9,5.9,59,0.00,,,0.00,WUHU216TE923,2013-08-31 05:39:00,
2013-08-30 22:44:00,63.9,49.4,29.94,NNW,338,3.2,4.0,59,0.00,,,0.00,WUHU216TE923,2013-08-31 05:44:00,
2013-08-30 22:49:00,63.7,49.2,29.94,NW,315,3.3,3.6,59,0.00,,,0.00,WUHU216TE923,2013-08-31 05:49:00,
2013-08-30 22:54:00,63.7,49.2,29.94,West,270,3.3,3.6,59,0.00,,,0.00,WUHU216TE923,2013-08-31 05:54:00,
2013-08-30 22:59:00,63.5,49.5,29.94,ENE,68,3.3,4.0,60,0.00,,,0.00,WUHU216TE923,2013-08-31 05:59:00,
2013-08-30 23:04:00,63.3,49.3,29.94,WNW,293,3.4,4.0,60,0.00,,,0.00,WUHU216TE923,2013-08-31 06:04:00,
2013-08-30 23:09:00,63.1,49.1,29.94,NNW,338,3.3,3.8,60,0.00,,,0.00,WUHU216TE923,2013-08-31 06:09:00,
2013-08-30 23:14:00,63.0,49.0,29.94,NNE,23,2.8,3.8,60,0.00,,,0.00,WUHU216TE923,2013-08-31 06:14:00,
2013-08-30 23:19:00,63.0,49.5,29.95,North,0,2.9,4.7,61,0.00,,,0.00,WUHU216TE923,2013-08-31 06:19:00,
2013-08-30 23:24:00,62.8,49.3,29.95,NW,315,3.1,4.7,61,0.00,,,0.00,WUHU216TE923,2013-08-31 06:24:00,
2013-08-30 23:29:00,62.8,49.3,29.95,NNE,23,3.0,3.5,61,0.00,,,0.00,WUHU216TE923,2013-08-31 06:29:00,
2013-08-30 23:34:00,62.6,49.5,29.95,NNE,23,3.1,4.9,62,0.00,,,0.00,WUHU216TE923,2013-08-31 06:34:00,
2013-08-30 23:39:00,62.4,49.8,29.94,NNE,23,3.4,4.9,63,0.00,,,0.00,WUHU216TE923,2013-08-31 06:39:00,
2013-08-30 23:44:00,62.4,49.8,29.94,NNW,338,3.1,4.0,63,0.00,,,0.00,WUHU216TE923,2013-08-31 06:44:00,
2013-08-30 23:49:00,62.2,49.6,29.94,NNW,338,2.9,4.4,63,0.00,,,0.00,WUHU216TE923,2013-08-31 06:49:00,
2013-08-30 23:54:00,62.1,49.9,29.94,North,0,3.0,4.4,64,0.00,,,0.00,WUHU216TE923,2013-08-31 06:54:00,
2013-08-30 23:59:00,61.9,50.2,29.95,NNW,338,3.1,4.7,65,0.00,,,0.00,WUHU216TE923,2013-08-31 06:59:00,